Regional Weather Roundup
Issued by NWS Sterling, VA

Home | Current Version | Previous Version | Graphics & Text | Print | Product List | Glossary On
Versions: 1 2 3 4 5 6 7 8 9 10 11 12 13 14 15 16 17 18 19 20 21 22 23 24 25 26 27 28 29 30 31 32 33 34 35 36 37 38 39 40 41 42 43 44 45 46 47 48 49 50
062
ASUS41 KLWX 020810
RWRLWX

REGIONAL WEATHER ROUNDUP
NATIONAL WEATHER SERVICE BALTIMORE MD/WASHINGTON DC
300 AM EST FRI DEC 02 2016

Note: "FAIR" indicates few or no clouds below 12,000 feet
with no significant weather and/or obstructions to visibility.
 TC=TEMPERATURE CELSIUS

 * =Non NWS site. Station does not report precipitation (e.g. rain,
    snow, etc.), thunder, or fog.

DCZ001-MDZ009-015-VAZ040>042-051-053>054-020900-
WASHINGTON METRO

CITY           SKY/WX    TMP DP  RH WIND       PRES   REMARKS
WASHINGTON NAT CLOUDY    47  28  47 NW12      30.01R
DULLES         CLOUDY    44  28  53 NW8       30.01R
ANDREWS AFB    CLOUDY    45  27  49 NW12      29.99R
FT BELVOIR     CLOUDY    45  28  50 NW7       30.01R
QUANTICO       CLEAR     40  30  67 N7        30.02S
COLLEGE PARK*  CLOUDY    45  27  49 W7        30.00F
LEESBURG*      CLOUDY    45  32  61 NW9       30.01S
MANASSAS*      CLOUDY    43  30  61 NW7       30.01F
GAITHERSBURG*  CLOUDY    43  23  45 W13G21    30.03R

$$

MDZ006>007-011-014-020900-
BALTIMORE METRO

CITY           SKY/WX    TMP DP  RH WIND       PRES   REMARKS
BWI AIRPORT    PTCLDY    41  28  60 W6        29.99R
MD SCIENCE CTR   N/A     44  26  49 MISG      29.99R
ANNAPOLIS      CLEAR     47  29  49 NW9G18    29.99R
FORT MEADE*    CLEAR     41  28  60 W8        30.02R

$$

MDZ012-015-019>023-020900-
MARYLAND EASTERN SHORE

CITY           SKY/WX    TMP DP  RH WIND       PRES   REMARKS
OCEAN CITY     CLEAR     32  30  92 W3        29.98R
SALISBURY      CLEAR     33  32  96 CALM      29.99R
BAY BRIDGE AP* CLEAR     45  30  57 NW12G20   30.00
CAMBRIDGE*     MOCLDY    43  32  65 NW10G16   29.99R
EASTON*        CLOUDY    46  30  52 N9G17     30.03R

$$

MDZ017>025-020900-
SOUTHERN MARYLAND

CITY           SKY/WX    TMP DP  RH WIND       PRES   REMARKS
PATUXENT RIVER PTCLDY    39  29  67 W7        30.00R
ST INIGOES     CLEAR     37  32  82 W3        30.00R
LEONARDTOWN*   CLEAR     36  30  80 CALM      30.01S

$$

MDZ003>005-020900-
NORTH CENTRAL MARYLAND

CITY           SKY/WX    TMP DP  RH WIND       PRES   REMARKS
FREDERICK*     CLOUDY    43  28  56 W8        30.03R
HAGERSTOWN APT CLOUDY    42  24  49 W12       29.97R
WESTMINSTER*   PTCLDY    37  27  65 SW8       29.95S

$$

MDZ501>502-020900-
WESTERN MARYLAND

CITY           SKY/WX    TMP DP  RH WIND       PRES   REMARKS
OAKLAND*       CLOUDY    28  25  86 W12G21    29.92S WCI  18
CUMBERLAND*    NOT AVBL

$$

VAZ025>031-020900-
SHENANDOAH VALLEY

CITY           SKY/WX    TMP DP  RH WIND       PRES   REMARKS
WINCHESTER*    CLOUDY    41  27  56 W9G17     30.00R
FRONT ROYAL*   CLOUDY    43  28  56 W6        29.99S
LURAY*         CLOUDY    43  32  65 W6        30.00S
NEW MARKET*    CLOUDY    41  28  59 CALM      30.00R
STAUNTON*      CLOUDY    37  32  82 CALM      30.02R
WAYNESBORO*    CLOUDY    39  28  64 CALM      30.00R

$$

WVZ021-048>050-054>055-020900-
EASTERN WEST VIRGINIA PANHANDLE

CITY           SKY/WX    TMP DP  RH WIND       PRES   REMARKS
MARTINSBURG    CLOUDY    43  23  45 NW17G33   30.00R
PETERSBURG*    CLOUDY    43  29  57 CALM      30.02R

$$

VAZ036>039-050-020900-
CENTRAL FOOTHILLS

CITY           SKY/WX    TMP DP  RH WIND       PRES   REMARKS
CHARLOTTESVILL CLEAR     41  27  57 SW3       30.01R
CULPEPER*      PTCLDY    33  31  93 CALM      30.02R
ORANGE*          N/A     32  32 100 CALM      30.03R
GORDONSVILLE*  FAIR      31  29  94 CALM      30.01R
WARRENTON*     FAIR      33  27  78 CALM      30.00S

$$

VAZ055>057-020900-
NORTH AND CENTRAL PIEDMONT

CITY           SKY/WX    TMP DP  RH WIND       PRES   REMARKS
FREDERICKSBRG* PTCLDY    33  32  97 SW3       30.02R
STAFFORD*      CLEAR     31  31 100 CALM      30.05R

$$

NCZ024-NYZ072-PAZ021-071-VAZ022-071-020900-
OTHER REGIONAL OBSERVATIONS

CITY           SKY/WX    TMP DP  RH WIND       PRES   REMARKS
NEW YORK CITY  PTCLDY    41  27  57 W9        29.90R
PHILADELPHIA   CLEAR     41  29  62 W9        29.95R
PITTSBURGH     CLOUDY    39  29  67 W8        29.98R
ROANOKE        PTCLDY    44  27  51 NW17      30.05R
RICHMOND       PTCLDY    35  31  85 CALM      30.03R
RALEIGH        PTCLDY    40  29  64 CALM      30.05R

$$

ANZ530>537-020900-
MARINE OBSERVATIONS

STATION/POSITION TIME  TEMP    WIND        PRES
                       AIR SEA DIR/SP/G
                 (UTC) (F)     (DEG/KT/KT) (MB)
THOMAS PT LIGHT  0800   46 51  310/ 16/ 19   N/A
BALT KEY BRIDGE  0748   45     250/ 12/ 14 1015.6R
COVE POINT       0748   44     330/  9/ 14 1016.4R
LEWISETTA        0748   43 53  270/  6/  6 1015.9R
SOLOMONS ISLAND  0748   43 53  260/  5/  6   N/A
PINEY POINT      0748          340/ 15/ 17   N/A

$$





USA.gov is the U.S. government's official web portal to all federal, state and local government web resources and services.